Regional Weather Roundup
Issued by NWS Charleston, WV

Home | Current Version | Previous Version | Text Only | Print | Product List | Glossary Off
Versions: 1 2 3 4 5 6 7 8 9 10 11 12 13 14 15 16 17 18 19 20 21 22 23 24 25 26 27

000
ASUS41 KRLX 310510
RWRRLX
West Virginia Regional Weather Roundup
National Weather Service Charleston WV
100 AM EDT FRI OCT 31 2014

Note: "fair" indicates few or no clouds below 12,000 feet with no
significant weather and/or obstructions to visibility.

WVZ003-310600-
Northern Panhandle of West Virginia

CITY           SKY/WX    TMP DP  RH WIND       PRES   REMARKS
WHEELING       CLOUDY    44  37  76 SE3       30.02F
$$

WVZ009-310600-
Northwest West Virginia

CITY           SKY/WX    TMP DP  RH WIND       PRES   REMARKS
PARKERSBURG    CLOUDY    45  39  79 CALM      30.06F
$$

WVZ006-310600-
Western West Virginia

CITY           SKY/WX    TMP DP  RH WIND       PRES   REMARKS
HUNTINGTON     PTCLDY    38  35  89 CALM      30.04F
$$

WVZ015-310600-
West Central West Virginia

CITY           SKY/WX    TMP DP  RH WIND       PRES   REMARKS
CHARLESTON     PTCLDY    38  35  89 CALM      30.04F
$$

WVZ022-031-310600-
North Central West Virginia

CITY           SKY/WX    TMP DP  RH WIND       PRES   REMARKS
CLARKSBURG     PTCLDY    43  38  82 CALM      30.03F
MORGANTOWN     CLOUDY    48  36  63 CALM      30.04F
$$

WVZ025-035-042-045-310600-
Southern West Virginia

CITY           SKY/WX    TMP DP  RH WIND       PRES   REMARKS
BECKLEY        PTCLDY    31  28  89 CALM      30.01F
LOGAN            N/A     37  34  87 CALM      30.02F
BLUEFIELD      CLEAR     36  30  79 SE5       30.01F
LEWISBURG      CLEAR     32  29  90 CALM      30.03S
$$

WVZ047-310600-
Northern Mountains of West Virginia

CITY           SKY/WX    TMP DP  RH WIND       PRES   REMARKS
ELKINS         MOCLDY    32  32 100 CALM      30.04S
$$

WVZ052-310600-
Eastern Panhandle of West Virginia

CITY           SKY/WX    TMP DP  RH WIND       PRES   REMARKS
MARTINSBURG    CLOUDY    46  38  73 CALM      30.04S
PETERSBURG     CLOUDY    39  34  81 CALM      30.06S
$$



USA.gov is the U.S. government's official web portal to all federal, state and local government web resources and services.